Flag for U.S.A. Weather past 2 weeks in Mesquite, Texas, U.S.A.

Now
88 °F

Sunny.


Feels Like: 84 °F
Forecast: 63 / 84 °F
Wind: 16 mph from Southwest

Location: Mesquite Metro Airport

Current Time: Apr 25, 2015 at 5:55:27 PM

Latest Report: Apr 25, 2015 at 4:50 PM


Visibility: 10 mi

Pressure: 29.65 "Hg

Humidity: 18%

Dew point: 39 °F

Location of MesquiteLocation

Historic Weather in Mesquite — Graph

°F

Mesquite temperature yesterday

Maximum temperature yesterday: 70 °F (at 11:50 AM)
Minimum temperature yesterday: 63 °F (at 10:15 PM)
Average temperature yesterday: 66 °F

Past Weeks' High & Low Weather Summary

 TemperatureHumidityPressure
High88 °F (Apr 25, 3:50 PM)100% (Apr 12, 9:50 AM)30.17 "Hg (Apr 12, 9:50 AM)
Low48 °F (Apr 21, 4:55 AM)22% (Apr 25, 3:50 PM)29.65 "Hg (Apr 25, 3:50 PM)
Average63 °F82%29.93 "Hg
* Reported Apr 10 3:50 PM — Apr 25 3:50 PM, Mesquite, Weather by CustomWeather, © 2015

Note: Actual official high and low records may vary slightly from our data, if they occured in-between our weather recording intervals... More about our weather records

Advertising

Mesquite weather history for previous 24 hours

 ConditionsComfort  
Time TempWeatherWind HumidityBarometerVisibility
3:50 PM
Sat, Apr 25
88 °FSunny.15 mph22%29.65 "Hg10 mi
2:50 PM86 °FSunny.14 mph25%29.68 "Hg10 mi
1:50 PM84 °FSunny.12 mph29%29.69 "Hg10 mi
12:50 PM82 °FSunny.9 mph30%29.71 "Hg10 mi
10:50 AM77 °FSunny.9 mph47%29.72 "Hg7 mi
9:50 AM72 °FSunny.6 mph61%29.73 "Hg7 mi
8:50 AM63 °FSunny.5 mph100%29.73 "Hg7 mi
7:50 AM59 °FSunny.3 mph94%29.72 "Hg7 mi
6:15 AM58 °FClear.5 mph98%29.71 "Hg5 mi
5:55 AM59 °FClear.No wind98%29.70 "Hg5 mi
5:35 AM59 °FClear.6 mph98%29.70 "Hg5 mi
5:15 AM58 °FClear.6 mph98%29.69 "Hg3 mi
4:55 AM59 °FClear.5 mph98%29.70 "Hg5 mi
4:35 AM59 °FClear.7 mph98%29.70 "Hg7 mi
4:15 AM59 °FClear.6 mph98%29.71 "Hg7 mi
3:55 AM60 °FClear.7 mph98%29.70 "Hg7 mi
3:35 AM60 °FClear.7 mph98%29.70 "Hg5 mi
3:15 AM60 °FClear.5 mph99%29.69 "Hg4 mi
2:55 AM60 °FPassing clouds.6 mph99%29.69 "Hg1 mi
2:35 AM61 °FLow clouds.6 mph98%29.69 "Hg0 mi
2:15 AM61 °FLow clouds.No wind98%29.69 "Hg1 mi
1:55 AM61 °FDense fog.3 mph98%29.69 "Hg1 mi
1:35 AM61 °FClear.6 mph98%29.69 "Hg2 mi
1:15 AM61 °FClear.3 mph98%29.69 "Hg7 mi
12:55 AM62 °FClear.5 mph99%29.69 "Hg7 mi
12:35 AM62 °FClear.7 mph98%29.70 "Hg7 mi
12:15 AM62 °FClear.5 mph99%29.71 "Hg10 mi
11:55 PM
Fri, Apr 24
63 °FClear.6 mph98%29.71 "Hg10 mi
11:35 PM63 °FClear.7 mph99%29.71 "Hg10 mi
10:35 PM63 °FClear.3 mph99%29.72 "Hg10 mi
10:15 PM63 °FClear.No wind98%29.70 "Hg10 mi
9:55 PM64 °FClear.5 mph98%29.68 "Hg10 mi
9:35 PM64 °FClear.6 mph99%29.70 "Hg10 mi
9:15 PM64 °FClear.6 mph98%29.67 "Hg10 mi
8:55 PM64 °FSunny.9 mph98%29.68 "Hg10 mi
7:50 PM64 °FThundershowers. Fog.6 mph94%29.69 "Hg5 mi
5:47 PM70 °FFog.5 mph94%29.70 "Hg3 mi
Weather by CustomWeather, © 2015

See weather overviewHow to use our weather pages